| time (UTC) | temp F | wind direction | speed MPH | gust MPH | rain 1hr in | rain 24hr in | rain mn in | humidity % | barometer mb |
| 20260509083031 | 54 | 142 | 0.0 | 0.0 | 0.00 | 0.14 | 0.00 | 95 | 1008.1 |
| 20260509081530 | 54 | 141 | 0.0 | 0.0 | 0.00 | 0.14 | 0.00 | 94 | 1008.2 |
| 20260509080040 | 54 | 142 | 0.0 | 0.0 | 0.00 | 0.14 | 0.00 | 93 | 1008.3 |
| 20260509074528 | 55 | 142 | 0.0 | 0.0 | 0.00 | 0.14 | 0.00 | 92 | 1008.2 |
| 20260509073038 | 56 | 142 | 0.0 | 0.0 | 0.00 | 0.14 | 0.00 | 91 | 1008.4 |
| 20260509071523 | 56 | 142 | 0.0 | 0.0 | 0.00 | 0.14 | 0.00 | 92 | 1008.3 |
| 20260509070021 | 56 | 142 | 0.0 | 0.0 | 0.00 | 0.14 | 0.00 | 89 | 1008.4 |
| 20260509064519 | 58 | 142 | 0.0 | 0.0 | 0.00 | 0.14 | 0.00 | 89 | 1008.4 |
| 20260509063025 | 58 | 142 | 0.0 | 0.0 | 0.00 | 0.14 | 0.00 | 89 | 1008.4 |
| 20260509061517 | 57 | 142 | 0.0 | 0.0 | 0.00 | 0.14 | 0.00 | 90 | 1008.3 |
| 20260509060016 | 58 | 142 | 0.0 | 0.0 | 0.00 | 0.14 | 0.00 | 89 | 1008.3 |
| 20260509054522 | 59 | 142 | 0.0 | 0.0 | 0.00 | 0.14 | 0.00 | 86 | 1008.6 |
| 20260509053012 | 61 | 142 | 0.0 | 0.0 | 0.00 | 0.14 | 0.00 | 86 | 1008.6 |
| 20260509051505 | 61 | 142 | 0.0 | 0.0 | 0.00 | 0.14 | 0.00 | 87 | 1008.6 |
| 20260509050005 | 61 | 142 | 0.0 | 0.0 | 0.00 | 0.14 | 0.00 | 84 | 1008.5 |
| 20260509044501 | 62 | 346 | 0.0 | 0.0 | 0.00 | 0.14 | 0.14 | 81 | 1008.6 |
| 20260509043000 | 61 | 344 | 0.0 | 0.0 | 0.00 | 0.14 | 0.14 | 81 | 1008.7 |
| 20260509041600 | 61 | 344 | 0.0 | 0.0 | 0.00 | 0.14 | 0.14 | 80 | 1008.7 |
| 20260509040107 | 62 | 344 | 0.0 | 0.0 | 0.00 | 0.14 | 0.14 | 77 | 1008.6 |
| 20260509034559 | 63 | 344 | 0.0 | 0.0 | 0.00 | 0.14 | 0.14 | 76 | 1008.5 |
| 20260509033059 | 64 | 344 | 0.0 | 0.0 | 0.00 | 0.14 | 0.14 | 74 | 1008.2 |
| 20260509031558 | 64 | 344 | 0.0 | 0.0 | 0.00 | 0.14 | 0.14 | 70 | 1008.0 |
| 20260509030057 | 65 | 344 | 0.0 | 0.0 | 0.00 | 0.14 | 0.14 | 66 | 1007.8 |
| 20260509024556 | 67 | 344 | 0.0 | 0.0 | 0.00 | 0.14 | 0.14 | 63 | 1007.6 |
| 20260509023054 | 68 | 344 | 0.0 | 0.0 | 0.00 | 0.14 | 0.14 | 62 | 1007.2 |
| 20260509021553 | 69 | 351 | 0.0 | 0.0 | 0.00 | 0.14 | 0.14 | 61 | 1007.0 |
| 20260509020050 | 70 | 45 | 0.0 | 0.0 | 0.00 | 0.14 | 0.14 | 60 | 1006.8 |
| 20260509014550 | 71 | 358 | 0.0 | 0.0 | 0.00 | 0.14 | 0.14 | 58 | 1006.5 |
| 20260509013100 | 72 | 329 | 0.0 | 0.0 | 0.00 | 0.14 | 0.14 | 56 | 1006.1 |
| 20260509011548 | 73 | 3 | 0.0 | 0.0 | 0.00 | 0.14 | 0.14 | 53 | 1005.7 |
| 20260509010148 | 74 | 112 | 0.0 | 3.0 | 0.00 | 0.14 | 0.14 | 50 | 1005.4 |
| 20260509004608 | 75 | 318 | 0.0 | 1.0 | 0.00 | 0.14 | 0.14 | 48 | 1005.1 |
| 20260509003050 | 76 | 325 | 1.0 | 10.0 | 0.00 | 0.14 | 0.14 | 46 | 1004.9 |
| 20260509001545 | 77 | 99 | 0.0 | 6.0 | 0.00 | 0.14 | 0.14 | 44 | 1004.4 |
| 20260509000045 | 78 | 318 | 0.0 | 6.0 | 0.00 | 0.14 | 0.14 | 41 | 1004.1 |
| 20260508234546 | 79 | 3 | 3.0 | 9.0 | 0.00 | 0.14 | 0.14 | 38 | 1003.7 |
| 20260508233050 | 79 | 48 | 0.0 | 13.0 | 0.00 | 0.14 | 0.14 | 41 | 1003.7 |
| 20260508231543 | 79 | 26 | 1.0 | 8.0 | 0.00 | 0.14 | 0.14 | 43 | 1003.6 |
| 20260508230054 | 80 | 316 | 0.0 | 10.0 | 0.00 | 0.14 | 0.14 | 41 | 1003.4 |
| 20260508224541 | 81 | 20 | 3.0 | 10.0 | 0.00 | 0.14 | 0.14 | 44 | 1003.3 |
| 20260508223040 | 81 | 316 | 1.0 | 11.0 | 0.00 | 0.14 | 0.14 | 43 | 1003.1 |
| 20260508221541 | 81 | 319 | 4.0 | 10.0 | 0.00 | 0.14 | 0.14 | 44 | 1003.3 |
| 20260508220041 | 79 | 20 | 1.0 | 4.0 | 0.00 | 0.14 | 0.14 | 60 | 1003.3 |
| 20260508214541 | 79 | 320 | 0.0 | 0.0 | 0.00 | 0.14 | 0.14 | 58 | 1003.0 |
| 20260508213038 | 83 | 256 | 0.0 | 6.0 | 0.00 | 0.14 | 0.14 | 56 | 1003.2 |
| 20260508211536 | 79 | 251 | 0.0 | 0.0 | 0.00 | 0.14 | 0.14 | 59 | 1003.2 |
| 20260508210036 | 77 | 310 | 0.0 | 0.0 | 0.00 | 0.14 | 0.14 | 65 | 1003.3 |
| 20260508204534 | 77 | 141 | 0.0 | 0.0 | 0.00 | 0.14 | 0.14 | 67 | 1003.5 |
| 20260508203031 | 77 | 141 | 0.0 | 0.0 | 0.01 | 0.14 | 0.14 | 70 | 1003.6 |
| 20260508201530 | 73 | 306 | 0.0 | 0.0 | 0.13 | 0.14 | 0.14 | 78 | 1003.7 |
| 20260508200037 | 70 | 358 | 0.0 | 4.0 | 0.13 | 0.14 | 0.14 | 78 | 1004.0 |
| 20260508194526 | 70 | 274 | 0.0 | 8.0 | 0.14 | 0.14 | 0.14 | 74 | 1004.4 |
| 20260508193026 | 77 | 217 | 6.0 | 16.0 | 0.12 | 0.12 | 0.12 | 59 | 1004.3 |
| 20260508191524 | 77 | 236 | 8.0 | 13.0 | 0.01 | 0.01 | 0.01 | 59 | 1004.6 |
| 20260508190021 | 77 | 209 | 0.0 | 13.0 | 0.01 | 0.01 | 0.01 | 61 | 1005.1 |
| 20260508184523 | 80 | 206 | 10.0 | 16.0 | 0.00 | 0.00 | 0.00 | 50 | 1005.5 |
| 20260508183011 | 80 | 232 | 8.0 | 16.0 | 0.00 | 0.00 | 0.00 | 50 | 1006.0 |
| 20260508181509 | 79 | 235 | 9.0 | 19.0 | 0.00 | 0.00 | 0.00 | 49 | 1006.3 |
| 20260508180006 | 79 | 251 | 9.0 | 22.0 | 0.00 | 0.00 | 0.00 | 49 | 1006.3 |
| 20260508174505 | 78 | 229 | 11.0 | 19.0 | 0.00 | 0.00 | 0.00 | 47 | 1006.6 |
| 20260508173100 | 78 | 159 | 10.0 | 17.0 | 0.00 | 0.00 | 0.00 | 47 | 1006.6 |
| 20260508171557 | 77 | 212 | 13.0 | 18.0 | 0.00 | 0.00 | 0.00 | 44 | 1007.0 |
| 20260508170053 | 76 | 196 | 13.0 | 20.0 | 0.00 | 0.00 | 0.00 | 44 | 1007.0 |
| 20260508164600 | 76 | 208 | 12.0 | 23.0 | 0.00 | 0.00 | 0.00 | 44 | 1007.3 |
| 20260508163045 | 74 | 230 | 8.0 | 17.0 | 0.00 | 0.00 | 0.00 | 49 | 1007.6 |
| 20260508161548 | 73 | 175 | 12.0 | 18.0 | 0.00 | 0.00 | 0.00 | 48 | 1008.0 |
| 20260508160039 | 73 | 213 | 9.0 | 19.0 | 0.00 | 0.00 | 0.00 | 49 | 1008.2 |
| 20260508154542 | 73 | 202 | 9.0 | 16.0 | 0.00 | 0.00 | 0.00 | 52 | 1008.1 |
| 20260508153034 | 71 | 190 | 10.0 | 18.0 | 0.00 | 0.00 | 0.00 | 54 | 1008.4 |
| 20260508151532 | 71 | 214 | 10.0 | 15.0 | 0.00 | 0.00 | 0.00 | 56 | 1008.6 |
| 20260508150027 | 70 | 246 | 10.0 | 18.0 | 0.00 | 0.00 | 0.00 | 56 | 1008.9 |
| 20260508144542 | 69 | 243 | 9.0 | 17.0 | 0.00 | 0.00 | 0.00 | 61 | 1009.1 |
| 20260508143018 | 67 | 218 | 8.0 | 13.0 | 0.00 | 0.00 | 0.00 | 65 | 1009.1 |
| 20260508141513 | 66 | 244 | 10.0 | 17.0 | 0.00 | 0.00 | 0.00 | 66 | 1009.4 |
| 20260508140011 | 64 | 173 | 6.0 | 16.0 | 0.00 | 0.00 | 0.00 | 70 | 1009.5 |
| 20260508134507 | 63 | 224 | 6.0 | 11.0 | 0.00 | 0.00 | 0.00 | 73 | 1009.7 |
| 20260508133003 | 61 | 167 | 5.0 | 12.0 | 0.00 | 0.00 | 0.00 | 74 | 1009.8 |
| 20260508131502 | 60 | 211 | 6.0 | 10.0 | 0.00 | 0.00 | 0.00 | 76 | 1009.8 |
| 20260508130001 | 59 | 209 | 6.0 | 9.0 | 0.00 | 0.00 | 0.00 | 77 | 1009.9 |
| 20260508124600 | 58 | 207 | 0.0 | 0.0 | 0.00 | 0.00 | 0.00 | 80 | 1009.9 |
| 20260508123111 | 56 | 149 | 0.0 | 0.0 | 0.00 | 0.00 | 0.00 | 82 | 1009.8 |
| 20260508121605 | 55 | 159 | 0.0 | 0.0 | 0.00 | 0.00 | 0.00 | 84 | 1009.6 |
| 20260508120057 | 54 | 143 | 0.0 | 0.0 | 0.00 | 0.00 | 0.00 | 84 | 1009.7 |
| 20260508114557 | 53 | 151 | 0.0 | 0.0 | 0.00 | 0.00 | 0.00 | 83 | 1009.7 |
| 20260508113108 | 53 | 145 | 0.0 | 0.0 | 0.00 | 0.00 | 0.00 | 82 | 1009.6 |
| 20260508111602 | 54 | 159 | 0.0 | 4.0 | 0.00 | 0.00 | 0.00 | 79 | 1009.3 |
| 20260508110056 | 57 | 159 | 0.0 | 8.0 | 0.00 | 0.00 | 0.00 | 74 | 1009.4 |
| 20260508104550 | 56 | 181 | 4.0 | 7.0 | 0.00 | 0.00 | 0.00 | 76 | 1009.4 |
| 20260508103057 | 55 | 208 | 0.0 | 0.0 | 0.00 | 0.00 | 0.00 | 75 | 1009.4 |
| 20260508101548 | 55 | 225 | 0.0 | 0.0 | 0.00 | 0.00 | 0.00 | 74 | 1009.3 |
| 20260508100046 | 55 | 209 | 0.0 | 0.0 | 0.00 | 0.00 | 0.00 | 72 | 1009.3 |
| 20260508094543 | 56 | 217 | 0.0 | 0.0 | 0.00 | 0.00 | 0.00 | 70 | 1009.4 |
| 20260508093041 | 57 | 202 | 0.0 | 1.0 | 0.00 | 0.00 | 0.00 | 68 | 1009.3 |
| 20260508091547 | 57 | 203 | 2.0 | 8.0 | 0.00 | 0.00 | 0.00 | 67 | 1009.1 |
| 20260508090049 | 58 | 218 | 5.0 | 11.0 | 0.00 | 0.00 | 0.00 | 65 | 1009.0 |
| 20260508084533 | 58 | 192 | 4.0 | 9.0 | 0.00 | 0.00 | 0.00 | 65 | 1008.9 |